User: anonymous   Login
Location: Unspecified
(0.0000°N, 0.0000°E)
Time: 05:02:49
(UTC+00:00)
Language:

UNISAT 6 - Orbit

View from above orbital plane
View from above orbital plane
View from above satellite
View from above satellite

Ground track
Ground track

The orbit data is extracted from the following two-line orbital elements,

1 40012U 14033C   19140.89231972  .00000150  00000-0  29794-4 0  9995
2 40012  97.7615   8.7388 0057987 189.3700 170.6432 14.73965928264449
Epoch (UTC): 20 May 2019 21:24:56
Eccentricity: 0.0057987
inclination: 97.7615°
perigee height: 607 km
apogee height: 689 km
right ascension of ascending node: 8.7388°
argument of perigee: 189.3700°
revolutions per day: 14.73965928
mean anomaly at epoch: 170.6432°
orbit number at epoch: 26444

The dashed part of the orbit path shows where the satellite is in the earth's shadow,  

DLR